Regional Weather Roundup
Issued by NWS

Home | Current Version | Previous Version | Graphics & Text | Print | Product List | Glossary On
Versions: 1 2 3 4 5 6 7 8 9 10 11 12 13 14 15 16 17 18 19 20 21 22 23 24 25 26 27 28 29 30 31 32 33 34 35 36 37 38 39 40 41 42 43 44 45 46 47 48 49 50
000
ASUS43 KDTX 211501
RWRMI
MICHIGAN HOURLY REGIONAL WEATHER ROUNDUP
NATIONAL WEATHER SERVICE DETROIT/PONTIAC MI
1000 AM EST SUN DEC 21 2014

NOTE: "FAIR" INDICATES FEW OR NO CLOUDS BELOW 12,000 FEET WITH NO
SIGNIFICANT WEATHER AND/OR OBSTRUCTION TO VISIBILITY.

MIZ047>049-052>055-059>063-066>070-074>076-081>083-211600-
SOUTHEAST LOWER MICHIGAN

CITY           SKY/WX    TMP DP  RH WIND       PRES   REMARKS
ADRIAN         CLOUDY    28  24  85 S3        30.31R FOG
ALMA           CLOUDY    30  28  92 S5        30.27R FOG     WCI  25
ANN ARBOR      CLOUDY    29  24  82 S5        30.30R WCI  24
BAD AXE        CLOUDY    27  25  93 S3        30.29S
CARO           CLOUDY    28  25  87 CALM      30.28S FOG
DETROIT CITY   PTSUNNY   32  23  69 S3        30.32R
DETROIT        PTSUNNY   29  25  85 CALM      30.32R FOG
FLINT          CLOUDY    31  25  78 S5        30.28S HAZE    WCI  26
GROSSE ILE     PTSUNNY   30  27  86 CALM      30.30S
HILLSDALE      CLOUDY    30  29  96 S5        30.26R FOG     WCI  25
HOWELL         CLOUDY    28  25  87 S5        30.27R FOG     WCI  23

CITY           SKY/WX    TMP DP  RH WIND       PRES   REMARKS
JACKSON        CLOUDY    30  26  85 SE5       30.27R FOG     WCI  25
LAMBERTVILLE   PTSUNNY   30  27  86 CALM      30.31S HAZE
LANSING        CLOUDY    30  26  85 S6        30.27S FOG     WCI  24
LAPEER         CLOUDY    28  25  87 S3        30.29S
MASON          CLOUDY    29  26  88 S6        30.27S FOG     WCI  23
MONROE         MOSUNNY   27  27 100 CALM      30.30R FOG
MT. CLEMENS    PTSUNNY   28  28  99 CALM      30.29R
PONTIAC        CLOUDY    28  23  81 S5        30.27S WCI  23
PORT HOPE        N/A     27  22  81 CALM      30.28S
PORT HURON     CLOUDY    28  25  86 CALM      30.31S
TRI CITIES     CLOUDY    31  26  82 S6        30.28S HAZE    WCI  25
TROY           PTSUNNY   32  24  72 CALM      30.32R
SAGINAW HB     CLOUDY    30  28  93 S6        30.28S FOG     WCI  24
$$
MIZ043>046-050>051-056>058-064>065-071>073-077>080-211600-
SOUTHWEST LOWER MICHIGAN

CITY           SKY/WX    TMP DP  RH WIND       PRES   REMARKS
BATTLE CREEK   CLOUDY    32  26  78 S9        30.26S HAZE    WCI  24
BENTON HARBOR  CLOUDY    32  26  78 SE9       30.24S WCI  24
BIG RAPIDS     CLOUDY    31  31 100 S6        30.21S FOG     WCI  25
COLDWATER      CLOUDY    31  27  88 MISG      30.27R FOG
FREMONT        CLOUDY    31  29  92 SE5       30.22S FOG     WCI  27
HOLLAND        CLOUDY    33  27  78 SE8       30.24F WCI  26
GRAND RAPIDS   CLOUDY    31  26  82 S9        30.25R HAZE    WCI  23
IONIA          CLOUDY    32  28  84 S7        30.25R FOG     WCI  26
KALAMAZOO      CLOUDY    31  26  82 S7        30.26S HAZE    WCI  24
LUDINGTON      CLOUDY    33  30  90 SE6       30.20S FOG     WCI  27
MARSHALL       CLOUDY    30  27  88 S5        30.26S FOG     WCI  25
MOUNT PLEASANT CLOUDY    30  28  93 SE6       30.25S FOG     WCI  24
MUSKEGON       CLOUDY    33  27  78 SE8       30.23S HAZE    WCI  26
SOUTH HAVEN    CLOUDY    32  28  83 S6        30.24S HAZE    WCI  27
$$
MIZ016>042-211600-
NORTHERN LOWER MICHIGAN

CITY           SKY/WX    TMP DP  RH WIND       PRES   REMARKS
ALPENA         CLOUDY    26  23  88 CALM      30.26S
BEAVER ISLAND  CLOUDY    32  29  90 SE6       30.18F WCI  26
BELLAIRE       CLOUDY    30  27  88 CALM      30.22S FOG
CADILLAC       CLOUDY    28  28  98 S6        30.18S FOG     WCI  22
CHARLEVOIX     CLOUDY    29  26  89 SE7       30.22S WCI  22
FRANKFORT      CLOUDY    32  30  94 SE6       30.18F FOG     WCI  26
GAYLORD        CLOUDY    25  23  92 S7        30.19S FOG     WCI  17
GRAYLING       CLOUDY    28  28  97 S5        30.21S FOG     WCI  23
HARBOR SPRINGS CLOUDY    27  23  85 NE6       30.21S WCI  20
HOUGHTON LAKE  CLOUDY    26  25  96 S8        30.22S FOG     WCI  18
MANISTEE       CLOUDY    30  27  86 SE6       30.20S WCI  24
OSCODA         CLOUDY    26  25  94 CALM      30.27S FOG
PELLSTON       CLOUDY    26  22  84 SE3       30.22S
ROGERS CITY    CLOUDY    25  23  94 SE3       30.26S
TRAVERSE CITY  CLOUDY    31  27  85 SE6       30.19F FOG     WCI  25
$$
MIZ007>008-015-211600-
EASTERN UPPER MICHIGAN

CITY           SKY/WX    TMP DP  RH WIND       PRES   REMARKS
KINROSS        CLOUDY    27  27 100 SE10      30.21S WCI  17
MACKINAC ISLAN CLOUDY    28  23  80 SE7       30.21S WCI  21
NEWBERRY       CLOUDY    27  25  91 SE10      30.17S WCI  17
S. S. MARIE    CLOUDY    27  23  85 CALM      30.21R
MUNISING         N/A     32  27  81 S5        30.12F WCI  27
$$
MIZ004>006-011>014-085-211600-
CENTRAL UPPER MICHIGAN

CITY           SKY/WX    TMP DP  RH WIND       PRES   REMARKS
MANISTIQUE     CLOUDY    33  32  95 SE12      30.14F FOG     WCI  25
ESCANABA       CLOUDY    34  27  75 S6        30.12F WCI  29
MENOMINEE      CLOUDY    30  27  86 S6        30.12F WCI  24
SAWYER-GWINN   CLOUDY    27  25  93 S10       30.07F FOG     WCI  17
$$
MIZ001>003-009>011-084-211600-
WESTERN UPPER MICHIGAN

CITY           SKY/WX    TMP DP  RH WIND       PRES   REMARKS
IRON MOUNTAIN  CLOUDY    27  25  92 SE6       30.07S FOG     WCI  20
HOUGHTON       CLOUDY    28  25  88 CALM      30.01F
COPPER HARBOR    N/A     33  28  81 VRB5      30.04F WCI  29
IRONWOOD       CLOUDY    30  27  86 SE6       29.92F WCI  24
$$

ABBREVIATIONS USED IN REMARKS
   TC - TEMPERATURE IN CELSIUS
  WCI - WIND CHILL INDEX
   HX - HEAT INDEX
  VSB - VISIBILITY



USA.gov is the U.S. government's official web portal to all federal, state and local government web resources and services.